Location: Bothwell
(41.7170°N, 112.2589°W)
Time: 11:36:48
(UTC+00:00)

Vanguard 2 Rocket - All Passes

Search period start: 15 May 2026 00:00
Search period end: 25 May 2026 00:00
Orbit: 553 x 3286 km, 32.9° (Epoch: 13 May)

Date Brightness Start Highest point End Pass type
(mag) Time Alt. Az. Time Alt. Az. Time Alt. Az.
15 May - 01:20:28 10° W 01:35:08 27° SW 01:47:24 10° S daylight
15 May - 15:22:05 10° SSE 15:27:54 15° SE 15:35:08 10° E daylight
15 May - 17:28:50 10° SW 17:40:11 44° SSE 17:57:05 10° E daylight
15 May - 19:40:39 10° WSW 19:55:35 63° S 20:15:19 10° E daylight
15 May - 21:54:58 10° W 22:12:41 59° SSW 22:31:19 10° ESE daylight
16 May - 00:11:47 10° W 00:28:44 37° SW 00:43:38 10° SSE daylight
16 May - 02:36:58 10° WSW 02:42:08 12° SW 02:46:56 10° SW daylight
16 May - 16:25:08 10° SSW 16:34:26 32° SE 16:48:14 10° E daylight
16 May - 18:35:28 10° WSW 18:48:27 58° SSE 19:07:24 10° E daylight
16 May - 20:48:43 10° W 21:05:02 63° S 21:24:36 10° ESE daylight
16 May - 23:04:10 10° W 23:21:46 46° SSW 23:38:46 10° SE daylight
17 May - 01:23:49 10° W 01:36:22 21° SW 01:47:29 10° S daylight
17 May - 15:22:31 10° S 15:29:20 20° SE 15:38:38 10° E daylight
17 May - 17:30:53 10° SW 17:41:55 49° SSE 17:59:05 10° E daylight
17 May - 19:43:01 10° WSW 19:57:30 64° S 20:17:14 10° ESE daylight
17 May - 21:57:19 10° W 22:14:24 54° SSW 22:32:59 10° SE daylight
18 May - 00:14:30 10° W 00:30:04 31° SW 00:44:25 10° SSE daylight
18 May - 16:26:54 10° SSW 16:36:05 38° SSE 16:50:26 10° E daylight
18 May - 18:37:49 10° WSW 18:50:23 61° S 19:09:18 10° E daylight
18 May - 20:51:07 10° W 21:06:53 60° SSW 21:26:21 10° ESE daylight
18 May - 23:06:40 10° W 23:23:16 40° SSW 23:39:54 10° SSE daylight
19 May - 01:28:22 10° WSW 01:37:36 15° SW 01:46:14 10° SSW daylight
19 May - 15:23:45 10° S 15:30:55 25° SE 15:41:26 10° E daylight
19 May - 17:33:08 10° SW 17:43:49 54° SSE 18:01:00 10° E daylight
19 May - 19:45:27 10° W 19:59:28 62° S 20:19:01 10° ESE daylight
19 May - 21:59:46 10° W 22:16:04 48° SSW 22:34:22 10° SE daylight
20 May - 00:17:42 10° W 00:31:23 24° SW 00:44:32 10° S daylight
20 May - 14:22:13 10° SSE 14:26:17 14° SE 14:31:16 10° ESE daylight
20 May - 16:28:59 10° SW 16:37:55 43° SSE 16:52:30 10° E daylight
20 May - 18:40:16 10° WSW 18:52:24 62° S 19:11:07 10° ESE daylight
20 May - 20:53:35 10° W 21:08:43 55° SSW 21:27:54 10° SE daylight
20 May - 23:09:25 10° W 23:24:44 33° SW 23:40:37 10° SSE daylight
21 May - 15:25:27 10° SSW 15:32:39 30° SE 15:43:51 10° E daylight
21 May - 17:35:33 10° WSW 17:45:51 57° SSE 18:02:51 10° E daylight
21 May - 19:47:58 10° W 20:01:27 59° S 20:20:40 10° ESE daylight
21 May - 22:02:22 10° W 22:17:43 42° SSW 22:35:23 10° SSE daylight
22 May - 00:21:47 10° W 00:32:44 18° SW 00:43:37 10° S daylight
22 May - 14:22:56 10° S 14:27:57 18° SE 14:34:47 10° E daylight
22 May - 16:31:16 10° SW 16:39:54 48° SSE 16:54:27 10° E daylight
22 May - 18:42:48 10° WSW 18:54:30 61° S 19:12:51 10° ESE daylight
22 May - 20:56:09 10° W 21:10:33 49° SSW 21:29:11 10° SE daylight
22 May - 23:12:36 10° W 23:26:12 26° SW 23:40:42 10° S daylight
23 May - 15:27:30 10° SSW 15:34:34 36° SSE 15:46:04 10° E daylight
23 May - 17:38:04 10° WSW 17:47:59 58° S 18:04:39 10° E daylight
23 May - 19:50:33 10° W 20:03:27 54° SSW 20:22:08 10° SE daylight
23 May - 22:05:13 10° W 22:19:22 35° SSW 22:36:00 10° SSE daylight
24 May - 00:28:11 10° WSW 00:34:10 12° SW 00:40:13 10° SSW daylight
24 May - 14:24:25 10° S 14:29:47 23° SE 14:37:36 10° E daylight
24 May - 16:33:42 10° WSW 16:42:02 51° SSE 16:56:22 10° E daylight
24 May - 18:45:25 10° W 18:56:37 58° S 19:14:27 10° ESE daylight
24 May - 20:58:52 10° W 21:12:23 42° SSW 21:30:07 10° SE daylight
24 May - 23:16:30 10° W 23:27:44 20° SW 23:39:51 10° S daylight
